STARLINK-1677, 46576

Orbit data source: Space-Track

STARLINK-1677, 46576 is a payload satellite owned by SpaceX/Seattle (US) in LEO that was launched on Tue, 06 Oct 2020 UTC via an FALCON 9 launch vehicle from the Air Force Eastern Test Range (AFETR). Payloads include a variety of satellites, spacecraft, and rockets equipped with specific instruments for various scientific and technological missions. These include communications satellites like Starlink; space stations such as the ISS; scientific satellites like the Hubble; Earth observation satellites from companies like Planet Labs, Umbra, and HawkEye 360; GPS; miniature CubeSats for education and research; and military/defense satellites.

Loading next visibility...
STARLINK-1677 details
Identifier
46576, 2020-070AW
Orbit
LEO
Last TLE update13 hours ago
Origin
Flag of USSpaceX/Seattle (US)
ManufacturerSpaceX/Seattle
MissionOperational Commercial Communications
Bus & MotorSTARLINK, Unknown motor
Mass260 kg wet, ~248 kg dry
Launch date (UTC)
2020-10-06 (4 years ago)
Launch vehicle
FALCON 9
Launch site
Air Force Eastern Test Range (AFETR)
Object type
Payload
Rocket body
Debris
Shape & HBRBox + 1 Pan, 8.86 m
Radar Cross Section13.562 m², Large (>1 m²)

Expand to show TLE details & history

TLE from 13 hours ago
0 STARLINK-1677
1 46576U 20070AW  24346.44546157  .00019847  00000-0  13487-2 0  9996
2 46576  53.0559  36.3095 0001543  77.5622 282.5540 15.06368065231401
Epoch: 2024-12-11T10:41Z
Definitive object data (Epoch: 2024-12-11T10:41:27.879Z)
Latitude
Longitude155.3033°
Altitude547.957 km
Speed7.589 km/s
True Right ascension02h 25m 14s
True Declination0° 00' 00"
Sunlit
Object was in full shadow at TLE epoch
Visualization TLE readout
Latitude-24.3752°
Longitude133.1372°
Altitude554.643 km
Speed7.584 km/s
Apparent Right ascension04h 16m 40s
Apparent Declination-55° 13' 16"
Sunlit
Object is in daylight
Visualization observer readout
Local Sidereal Time21:41:44
Azimuth135.533° SSE
Elevation-36.405°
Doppler factor1
Orbital elements
Apogee altitude548.649 km
Perigee altitude546.511 km
Semi-major axis6,925.717 km
Eccentricity0.0001543
Inclination53.0559°
RAAN36.3095°
Arg. of periapsis77.5622°
True anomaly282.53674°
Mean anomaly282.554°
Eccentric anomaly282.54537°
Mean motion3.7657 °/min
BSTAR0.0013487
Orbital period95.6 mins
Loading maneuver chart data...
Loading historical data...
Loading historical data...
Loading historical data...
Loading historical data...
Loading historical data...
Loading historical data...
Loading historical data...

STARLINK-1677 Visibility forecast

Observer location: undefined°, undefined

Span
Click to sort rows by Start time (UTC) header in descending order
Start Az.
Max El. time (UTC)
Max El. Az.
Max El.
End time (UTC)
End Az.
7 mins2024-12-12 05:57:34.791Z215.913° SW2024-12-12 06:01:34.791Z115.969° SE40.837°2024-12-12 06:04:34.791Z58.421° ENE
4 mins2024-12-12 07:39:34.791Z300.072° NW2024-12-12 07:41:34.791Z346.258° N23.014°2024-12-12 07:43:34.791Z22.537° NE
6 mins2024-12-12 12:40:34.791Z322.749° NNW2024-12-12 12:42:34.791Z15.164° NNE40.821°2024-12-12 12:46:34.791Z117.434° SE
4 mins2024-12-12 14:20:34.791Z258.513° W2024-12-12 14:21:34.791Z240.834° WSW17.201°2024-12-12 14:24:34.791Z191.28° SSW
|